Date String (YYYY-MM-DD hh:mm:ss) UTC,Instrument flags,Ambient pressure (hPa),Sample flow (lpm),Bypass flow (lpm),Sample temperature (°C),Ambient temperature (°C),ASC tube jacket temperature (°C),LED temperature (°C),Box temperature (°C),Sample RH (%),Span deviation,Mass concentration (μg/m³),Mass concentration (μg/m³),Mass concentration (μg/m³)
DateTimeUTC,F1_M11,P_M11,Q1_M11,Q2_M11,T1_M11,T2_M11,T3_M11,T4_M11,T5_M11,U1_M11,ZSPAN_M11,X2_M11,X0_M11,X1_M11
2023-04-26 13:00:00,,0832.3,5.00,0.00,22.9,21.5,00.0,31.2,24.5,27.2,0000.0,0000.39,0000.61,0000.30
2023-04-26 13:01:00,,0832.3,5.00,0.00,22.9,21.5,00.0,31.2,24.5,27.3,0000.0,0000.37,0000.54,0000.30
2023-04-26 13:02:00,,0832.3,5.00,0.00,22.9,21.5,00.0,31.2,24.5,27.3,0000.0,0000.37,0000.55,0000.29
2023-04-26 13:03:00,,0832.3,4.99,0.00,22.9,21.5,00.0,31.2,24.5,27.3,0000.0,0000.36,0000.53,0000.29
2023-04-26 13:04:00,,0832.3,4.99,0.00,22.9,21.5,00.0,31.2,24.5,27.3,0000.0,0000.37,0000.56,0000.29
2023-04-26 13:05:00,,0832.4,5.00,0.00,22.9,21.5,00.0,31.2,24.5,27.2,0000.0,0000.37,0000.55,0000.29
2023-04-26 13:06:00,,0832.4,5.01,0.00,22.9,21.5,00.0,31.2,24.5,27.2,0000.0,0000.38,0000.56,0000.30
2023-04-26 13:07:00,,0832.4,5.00,0.00,22.9,21.5,00.0,31.2,24.5,27.2,0000.0,0000.38,0000.54,0000.30
2023-04-26 13:08:00,,0832.4,4.98,0.00,22.9,21.5,00.0,31.2,24.5,27.1,0000.0,0000.38,0000.55,0000.30
2023-04-26 13:09:00,,0832.4,5.00,0.00,22.9,21.5,00.0,31.2,24.5,27.2,0000.0,0000.39,0000.56,0000.30
2023-04-26 13:10:00,,0832.4,5.00,0.00,22.9,21.5,00.0,31.2,24.5,27.2,0000.0,0000.39,0000.56,0000.31
2023-04-26 13:11:00,,0832.4,5.00,0.00,22.9,21.5,00.0,31.2,24.5,27.2,0000.0,0000.39,0000.56,0000.30
2023-04-26 13:12:00,,0832.4,5.01,0.00,22.9,21.5,00.0,31.2,24.5,27.3,0000.0,0000.41,0000.63,0000.30
2023-04-26 13:13:00,,0832.3,4.99,0.00,22.9,21.5,00.0,31.2,24.5,27.2,0000.0,0000.41,0000.62,0000.30
2023-04-26 13:14:00,,0832.3,5.00,0.00,22.9,21.5,00.0,31.2,24.5,27.1,0000.0,0000.41,0000.62,0000.30
2023-04-26 13:15:00,,0832.3,5.00,0.00,22.9,21.5,00.0,31.2,24.5,27.1,0000.0,0000.40,0000.59,0000.30
2023-04-26 13:16:00,,0832.3,5.00,0.00,22.9,21.5,00.0,31.2,24.5,27.1,0000.0,0000.41,0000.60,0000.31
2023-04-26 13:17:00,,0832.3,5.00,0.00,22.9,21.5,00.0,31.2,24.5,27.3,0000.0,0000.40,0000.59,0000.31
2023-04-26 13:18:00,,0832.3,5.00,0.00,22.9,21.5,00.0,31.2,24.5,27.3,0000.0,0000.40,0000.58,0000.31
2023-04-26 13:19:00,,0832.3,5.00,0.00,22.9,21.5,00.0,31.3,24.5,27.3,0000.0,0000.39,0000.59,0000.31
2023-04-26 13:20:00,,0832.4,5.00,0.00,22.9,21.5,00.0,31.3,24.5,27.4,0000.0,0000.40,0000.60,0000.31
2023-04-26 13:21:00,,0832.3,5.00,0.00,23.0,21.5,00.0,31.3,24.5,27.3,0000.0,0000.39,0000.56,0000.31
2023-04-26 13:22:00,,0832.4,5.00,0.00,23.0,21.5,00.0,31.3,24.5,27.4,0000.0,0000.37,0000.53,0000.31
2023-04-26 13:23:00,,0832.4,5.01,0.00,23.0,21.5,00.0,31.3,24.5,27.5,0000.0,0000.36,0000.50,0000.31
2023-04-26 13:24:00,,0832.4,5.01,0.00,23.0,21.5,00.0,31.3,24.5,27.5,0000.0,0000.35,0000.45,0000.31
2023-04-26 13:25:00,,0832.5,4.99,0.00,23.0,21.5,00.0,31.3,24.5,27.5,0000.0,0000.35,0000.44,0000.31
2023-04-26 13:26:00,,0832.5,4.99,0.00,23.0,21.5,00.0,31.3,24.6,27.7,0000.0,0000.36,0000.47,0000.32
2023-04-26 13:27:00,,0832.5,4.99,0.00,23.0,21.5,00.0,31.3,24.5,27.8,0000.0,0000.36,0000.47,0000.32
2023-04-26 13:28:00,,0832.5,5.00,0.00,23.0,21.5,00.0,31.3,24.5,27.8,0000.0,0000.37,0000.49,0000.32
2023-04-26 13:29:00,,0832.5,5.01,0.00,23.0,21.5,00.0,31.3,24.6,27.9,0000.0,0000.39,0000.60,0000.32
2023-04-26 13:30:00,,0832.5,5.00,0.00,23.0,21.5,00.0,31.3,24.6,27.8,0000.0,0000.41,0000.69,0000.32
2023-04-26 13:31:00,,0832.5,5.01,0.00,23.0,21.5,00.0,31.3,24.5,27.8,0000.0,0000.49,0001.76,0000.35
2023-04-26 13:32:00,,0832.5,5.00,0.00,23.0,21.5,00.0,31.3,24.5,27.9,0000.0,0000.60,0002.02,0000.38
2023-04-26 13:33:00,,0832.6,5.00,0.00,23.0,21.5,00.0,31.3,24.5,28.0,0000.0,0000.71,0002.28,0000.43
2023-04-26 13:34:00,,0832.5,4.99,0.00,23.0,21.5,00.0,31.3,24.5,27.9,0000.0,0000.81,0002.51,0000.47
2023-04-26 13:35:00,,0832.5,5.00,0.00,23.0,21.5,00.0,31.3,24.5,28.0,0000.0,0000.86,0002.92,0000.50
2023-04-26 13:36:00,,0832.5,5.00,0.00,23.0,21.5,00.0,31.3,24.5,28.0,0000.0,0000.95,0004.71,0000.54
2023-04-26 13:37:00,,0832.5,5.00,0.00,23.0,21.5,00.0,31.3,24.5,27.8,0000.0,0001.06,0005.02,0000.58
2023-04-26 13:38:00,,0832.6,5.01,0.00,23.0,21.5,00.0,31.3,24.6,27.7,0000.0,0001.21,0005.38,0000.65
2023-04-26 13:39:00,,0832.5,5.00,0.00,23.0,21.5,00.0,31.3,24.6,27.7,0000.0,0001.33,0005.65,0000.70
2023-04-26 13:40:00,,0832.5,4.99,0.00,23.0,21.5,00.0,31.3,24.5,27.6,0000.0,0001.40,0005.73,0000.74
2023-04-26 13:41:00,,0832.5,5.00,0.00,23.0,21.5,00.0,31.3,24.6,27.7,0000.0,0001.44,0005.75,0000.76
2023-04-26 13:42:00,,0832.6,5.01,0.00,23.0,21.5,00.0,31.3,24.6,27.6,0000.0,0001.41,0004.79,0000.76
2023-04-26 13:43:00,,0832.5,5.00,0.00,23.0,21.5,00.0,31.3,24.6,27.5,0000.0,0001.37,0004.66,0000.75
2023-04-26 13:44:00,,0832.5,5.00,0.00,23.0,21.5,00.0,31.3,24.6,27.4,0000.0,0001.34,0004.58,0000.74
2023-04-26 13:45:00,,0832.5,5.00,0.00,23.0,21.5,00.0,31.3,24.6,27.3,0000.0,0001.30,0004.72,0000.72
2023-04-26 13:46:00,,0832.6,5.00,0.00,23.0,21.5,00.0,31.3,24.6,27.3,0000.0,0001.32,0004.95,0000.72
2023-04-26 13:47:00,,0832.5,5.00,0.00,23.0,21.5,00.0,31.3,24.6,27.4,0000.0,0001.28,0003.23,0000.70
2023-04-26 13:48:00,,0832.6,4.99,0.00,23.0,21.4,00.0,31.3,24.5,27.2,0000.0,0001.21,0003.02,0000.66
2023-04-26 13:49:00,,0832.6,4.99,0.00,23.0,21.5,00.0,31.3,24.5,27.3,0000.0,0001.09,0002.74,0000.59
2023-04-26 13:50:00,,0832.6,4.99,0.00,23.0,21.5,00.0,31.3,24.6,27.6,0000.0,0001.00,0002.56,0000.55
2023-04-26 13:51:00,,0832.7,5.00,0.00,23.0,21.5,00.0,31.3,24.6,27.7,0000.0,0000.95,0002.52,0000.52
2023-04-26 13:52:00,,0832.7,5.00,0.00,22.9,21.5,00.0,31.3,24.6,27.5,0000.0,0000.90,0002.42,0000.49
2023-04-26 13:53:00,,0832.7,5.01,0.00,22.9,21.4,00.0,31.3,24.6,27.4,0000.0,0000.88,0002.38,0000.48
2023-04-26 13:54:00,,0832.6,5.00,0.00,22.9,21.4,00.0,31.3,24.5,27.5,0000.0,0000.87,0002.41,0000.47
2023-04-26 13:55:00,,0832.6,4.99,0.00,22.9,21.5,00.0,31.3,24.5,27.6,0000.0,0000.84,0002.38,0000.44
2023-04-26 13:56:00,,0832.6,5.01,0.00,22.9,21.5,00.0,31.3,24.5,27.6,0000.0,0000.80,0002.06,0000.41
2023-04-26 13:57:00,,0832.6,4.99,0.00,22.9,21.5,00.0,31.3,24.5,27.6,0000.0,0000.81,0001.73,0000.39
2023-04-26 13:58:00,,0832.7,4.99,0.00,22.9,21.5,00.0,31.3,24.5,27.6,0000.0,0000.82,0001.76,0000.38
2023-04-26 13:59:00,,0832.7,4.99,0.00,22.9,21.5,00.0,31.3,24.5,27.6,0000.0,0000.83,0001.78,0000.38
